Miscellaneous Local Product
Issued by NWS North Platte, NE

Home | Current Version | Previous Version | Text Only | Print | Product List | Glossary On
Versions: 1 2 3 4 5 6 7 8 9 10 11 12 13 14 15 16 17 18 19 20 21 22 23 24 25 26 27 28 29 30 31 32 33 34 35 36 37 38 39 40 41 42 43 44 45 46 47 48 49 50
000
AXUS43 KLBF 050810
MISLBF


WESTERN AND NORTH CENTRAL NEBRASKA HOURLY WEATHER ROUNDUP
NATIONAL WEATHER SERVICE NORTH PLATTE NE
300 AM CDT TUE MAY 05 2015

***STATIONS NOT REPORTING VARIABLES SUCH AS SKY/WEATHER OR
PRESSURE ARE PROVIDED BY THE NEBRASKA DEPARTMENT OF
ROADS...RAWS...AND APRS NETWORKS...AND ARE NOT UNDER
NATIONAL WEATHER SERVICE QUALITY CONTROL***

...OBSERVATIONS IN AND NEAR THE EASTERN PANHANDLE OF NEBRASKA...

CITY           SKY/WX    TMP DP  RH WIND       PRES   REMARKS
PINE RIDGE     PTCLDY    41  33  73 E6        30.06F
CHADRON        PTCLDY    44  37  76 S5        30.05F
ALLIANCE       CLOUDY    48  42  80 S12       30.06F
SIDNEY         CLOUDY    45  44  97 SE6       30.07F FOG
WHITECLAY        N/A     42  33  72 E6          N/A
CRESCENT LAKE    N/A     48  43  83 SE5         N/A
BIG SPRINGS      N/A     49  47  94 E3          N/A
$$

...OBSERVATIONS IN NORTH CENTRAL NEBRASKA...

CITY           SKY/WX    TMP DP  RH WIND       PRES   REMARKS
VALENTINE      CLOUDY    47  39  74 CALM      30.10R
THEDFORD       CLOUDY    54  49  85 SE3       30.09S
AINSWORTH      CLOUDY    53  46  75 SE3       30.09S
O`NEILL        CLOUDY    54  51  88 E5        30.09F
ORD            CLOUDY    54  53  97 E6        30.05F FOG
BROKEN BOW     FOG       53  52  96 E5        30.06F VSB 1/2
BROWNLEE         N/A     54  44  69 E5          N/A
VALENTINE NWR    N/A     47  40  76 SE3         N/A
SPRINGVIEW       N/A     47  39  74 CALM        N/A
BREWSTER         N/A     54  53  97 E6          N/A
ROSE             N/A     55  54  99 E3          N/A
NEWPORT          N/A     54  53  97 E8          N/A
SARGENT          N/A     53  52  96 CALM        N/A
COMSTOCK         N/A     56  55  99 CALM        N/A
EWING            N/A     54  51  89 E3          N/A
$$

...OBSERVATIONS IN SOUTHWEST NEBRASKA AND FAR NORTHEAST COLORADO...

CITY           SKY/WX    TMP DP  RH WIND       PRES   REMARKS
WRAY           CLOUDY   N/A N/A N/A E6        30.07R HAZE
IMPERIAL       FOG       49  47  93 E5        30.07S VSB 1
OGALLALA       CLOUDY    49  48  97 E3        30.06F FOG
NORTH PLATTE   CLOUDY    51  50  96 E3        30.06F
MCCOOK         CLOUDY    53  52  96 NE3       30.06F FOG
LEXINGTON      FOG       54  53  97 E5        30.06S VSB 1/2
PAXTON           N/A     50  48  93 CALM        N/A
SUTHERLAND       N/A     46  44  93 CALM        N/A
GOTHENBURG       N/A     52  50  93 E3          N/A
CALLAWAY         N/A     52  51  97 E3          N/A
$$

...NORTH PLATTE AREA...

CITY           SKY/WX    TMP DP  RH WIND       PRES   REMARKS
AIRPORT        CLOUDY    51  50  96 E3        30.06F
DOWNTOWN         N/A     51  49  95 CALM        N/A
$$

...SOME WEATHER OBSERVATIONS FROM AROUND THE REGION...

CITY           SKY/WX    TMP DP  RH WIND       PRES   REMARKS
DENVER         FOG       48  46  93 E7        30.04F VSB 1/2
LARAMIE        CLOUDY    42  41  96 S16       30.03F FOG
CHEYENNE       FOG       44  43  96 S6        30.06F VSB 1/4
SCOTTSBLUFF    CLOUDY    48  43  82 SE9       30.07F
RAPID CITY     CLEAR     44  35  70 S8        30.05F
PIERRE         PTCLDY    49  29  46 E6        30.07F
WINNER         FAIR      48  35  60 SE7       30.09S
SIOUX FALLS    CLEAR     45  32  60 NE3       30.12F
OMAHA          CLOUDY    59  57  93 N9        30.05F
GRAND ISLAND   FOG       55  55 100 NE6       30.06F VSB 1/4
KANSAS CITY    CLOUDY    60  60 100 S6        30.06F
WICHITA        MOCLDY    65  56  72 SE8       30.04F
HAYS           CLOUDY    59  54  82 E12       30.04F
LIBERAL        CLOUDY    61  55  82 NE7       29.99F
GOODLAND       CLOUDY    50  50 100 NE7       30.05F FOG
$$



USA.gov is the U.S. government's official web portal to all federal, state and local government web resources and services.